Terminal Aerodrome Forecast
Issued by NWS Austin/San Antonio, TX

Home | Current Version | Previous Version | Text Only | Print | Product List | Glossary On
Versions: 1 2 3 4 5 6 7 8 9 10 11 12 13 14 15 16
000
FTUS44 KEWX 162300
TAFDRT
TAF
KDRT 162336Z 1700/1724 13014G24KT P6SM OVC250
     FM170800 12014KT P6SM BKN014
     FM171500 13012KT P6SM BKN040=

USA.gov is the U.S. government's official web portal to all federal, state and local government web resources and services.